Weather in Severnyy Kommunar

Russia / Perm Krai     58°22′49″N   54°00′55″E
temp.,
°C
wind,
m/s
gust,
m/s
humid.,
%
clouds,
%
prec.,
mm/h
press.,
hPa
HPBL,
m
3 march, wed
wed323:00−4w239691 1.7 99378
02:00−7w239761 0.0 99488
05:00−9w389644 0.1 995148
08:00−10w269789 0.0 995101
11:00−5wnw249377 0.0 996254
14:00−3w2490100 0.1 996498
17:00−3wnw3591100 0.4 997576
20:00−7wnw399399 0.2 997274
4 march, thu
thu423:00−9w399585 0.2 998232
02:00−9w3894100 0.0 996317
05:00−11wsw389596 0.1 997261
08:00−11wsw3895100 0.0 995239
11:00−8sw3891100 0.1 995384
14:00−6ssw4792100 0.3 993552
17:00−5s3792100 0.6 991590
20:00−6sse3796100 0.5 989350
5 march, fri
fri523:00−8se229797 0.7 98948
02:00−8sw119798 0.4 98921
05:00−9wnw129797 0.5 99221
08:00−8wnw3895100 1.0 995368
11:00−9wnw479298 1.2 997379
14:00−9w368899 0.0 999597
17:00−10wnw4785100 0.1 1001748
20:00−15wnw3894100 0.0 1002232
6 march, sat
sat623:00−17wnw399576 0.1 1005244
02:00−19w39959 0.0 1006234
05:00−20w38966 0.0 1007197
08:00−21w259765 0.0 1009110
11:00−15w249073 0.0 1009260
14:00−11wsw248498 0.0 1009619
17:00−10wsw138998 0.3 1008436
20:00−13w2296100 0.2 100730
7 march, sun
sun723:00−17nw239888 0.3 100733
02:00−18nw229897 0.1 100620
05:00−21wnw239898 0.1 100647
08:00−22wnw229878 0.0 100630
11:00−17wnw239375 0.0 1006256
14:00−14w238393 0.0 1006777
17:00−14wsw348497 0.1 1006821
20:00−19ssw229673 0.0 100620